Location: Isola Pescaroli
(45.0500°N, 10.1667°E)
Time: 04:27:23
(UTC+00:00)

ATLAS CENTAUR R/B - Pass Details

Date: 03 March 2021
Orbit: 475 x 670 km, 64.7° (Epoch: 30 March)

Event Time Altitude Azimuth Distance (km) Brightness Sun altitude
Rises 19:58:05 0° 260° (W) 2,520 5.5 -30.0°
Reaches altitude 10° 20:00:52 10° 284° (WNW) 1,647 4.6 -30.4°
Maximum altitude 20:03:10 16° 323° (NW) 1,341 3.9 -30.8°
Enters shadow 20:03:16 16° 325° (NW) 1,342 3.9 -30.8°
